Total_Precipitation_Accumulation
0.01 0.02 0.03 0.05 0.06 0.06 0.04 0.04 0.14 0.10 0.11 0.09 0.04 0.02 0.02 0.01 0.01 0.01 0.01 0.01 0.01 0.01 0.01 0.02 0.02 0.04 0.10 0.15 0.15 0.23 0.43 0.54 0.43 0.27 0.19 0.13 0.11 0.13 0.18 0.26 0.32 0.45 0.61 0.71
0.01 0.02 0.02 0.04 0.08 0.06 0.03 0.02 0.02 0.03 0.05 0.02 0.02 0.02 0.02 0.02 0.02 0.02 0.02 0.02 0.02 0.02 0.01 0.02 0.03 0.04 0.04 0.07 0.12 0.21 0.37 0.49 0.43 0.33 0.21 0.13 0.11 0.13 0.20 0.26 0.32 0.40 0.49 0.50
0.01 0.03 0.03 0.10 0.09 0.05 0.02 0.02 0.03 0.04 0.05 0.03 0.04 0.04 0.04 0.05 0.04 0.03 0.02 0.02 0.01 0.01 0.01 0.01 0.03 0.05 0.06 0.06 0.10 0.22 0.37 0.46 0.47 0.42 0.32 0.24 0.17 0.17 0.23 0.29 0.33 0.39 0.39 0.40
0.01 0.02 0.08 0.09 0.03 0.02 0.03 0.03 0.03 0.04 0.05 0.05 0.06 0.05 0.05 0.06 0.04 0.02 0.01 0.01 0.01 0.01 0.01 0.01 0.02 0.03 0.05 0.06 0.10 0.19 0.31 0.44 0.50 0.49 0.45 0.43 0.33 0.31 0.34 0.38 0.41 0.45 0.42 0.41
0.02 0.02 0.06 0.05 0.04 0.05 0.05 0.04 0.05 0.06 0.06 0.06 0.05 0.04 0.04 0.03 0.02 0.01 0.01 0.01 0.01 0.01 0.02 0.02 0.03 0.03 0.04 0.06 0.10 0.17 0.26 0.41 0.50 0.52 0.51 0.49 0.48 0.47 0.50 0.54 0.50 0.47 0.46 0.48
0.03 0.06 0.08 0.06 0.06 0.08 0.07 0.12 0.09 0.06 0.04 0.03 0.03 0.05 0.02 0.01 0.01 0.01 0.01 0.01 0.01 0.01 0.02 0.03 0.04 0.05 0.07 0.09 0.15 0.23 0.28 0.39 0.54 0.64 0.69 0.69 0.66 0.61 0.61 0.70 0.63 0.57 0.52 0.54
0.06 0.10 0.09 0.04 0.05 0.05 0.11 0.14 0.04 0.02 0.02 0.03 0.06 0.09 0.05 0.02 0.01 0.01 0.01 0.01 0.02 0.02 0.03 0.05 0.06 0.10 0.15 0.19 0.25 0.27 0.31 0.37 0.51 0.71 0.81 0.81 0.83 0.79 0.76 0.77 0.78 0.78 0.70 0.70
0.06 0.12 0.13 0.03 0.02 0.04 0.06 0.04 0.04 0.05 0.05 0.06 0.05 0.03 0.02 0.01 0.01 0.01 0.01 0.01 0.02 0.03 0.05 0.06 0.10 0.19 0.28 0.33 0.34 0.35 0.39 0.47 0.58 0.71 0.65 0.66 0.89 0.94 0.96 1.00 0.99 0.94 0.89 0.82
0.06 0.08 0.03 0.01 0.02 0.03 0.04 0.07 0.07 0.07 0.05 0.03 0.03 0.02 0.02 0.02 0.02 0.02 0.02 0.03 0.04 0.06 0.09 0.13 0.21 0.35 0.47 0.47 0.46 0.46 0.50 0.56 0.63 0.70 0.80 0.93 1.01 1.03 1.06 1.10 1.11 1.04 0.99 0.95
0.07 0.04 0.02 0.02 0.03 0.03 0.03 0.04 0.03 0.02 0.02 0.02 0.03 0.04 0.04 0.04 0.03 0.03 0.02 0.03 0.05 0.10 0.19 0.27 0.37 0.50 0.58 0.57 0.57 0.56 0.58 0.59 0.63 0.74 0.83 0.95 1.12 1.18 1.19 1.15 1.14 1.12 1.04 1.00
0.07 0.05 0.03 0.04 0.04 0.02 0.01 0.01 0.01 0.01 0.01 0.03 0.05 0.06 0.06 0.06 0.05 0.04 0.04 0.05 0.09 0.17 0.26 0.34 0.47 0.58 0.59 0.61 0.68 0.71 0.67 0.66 0.66 0.75 0.89 0.97 1.09 1.18 1.19 1.23 1.07 1.01 0.95 0.92
0.07 0.06 0.07 0.07 0.04 0.02 0.02 0.02 0.03 0.03 0.03 0.04 0.05 0.06 0.06 0.06 0.06 0.05 0.05 0.08 0.15 0.24 0.29 0.34 0.45 0.60 0.65 0.73 0.81 0.85 0.82 0.74 0.70 0.76 0.89 0.99 1.09 1.10 0.94 0.88 0.71 0.63 0.64 0.61
0.05 0.04 0.04 0.04 0.03 0.03 0.04 0.04 0.04 0.05 0.05 0.05 0.05 0.05 0.05 0.05 0.05 0.05 0.07 0.12 0.21 0.30 0.36 0.41 0.47 0.59 0.70 0.84 0.94 0.99 0.95 0.85 0.78 0.77 0.86 0.94 1.04 1.17 1.21 0.99 0.75 0.59 0.52 0.45
0.03 0.03 0.03 0.02 0.02 0.02 0.03 0.03 0.03 0.05 0.06 0.06 0.06 0.06 0.06 0.06 0.06 0.08 0.12 0.19 0.26 0.34 0.41 0.48 0.56 0.64 0.73 0.89 0.98 1.00 1.01 0.90 0.82 0.83 0.87 0.90 0.96 1.09 1.25 1.25 1.03 0.72 0.57 0.47
0.02 0.03 0.03 0.02 0.02 0.02 0.02 0.03 0.04 0.06 0.07 0.07 0.07 0.07 0.07 0.08 0.10 0.13 0.18 0.28 0.40 0.46 0.48 0.54 0.64 0.69 0.83 0.99 1.05 1.01 0.97 0.90 0.82 0.85 0.87 0.86 0.92 1.00 1.09 1.16 1.09 0.93 0.76 0.58
0.02 0.03 0.02 0.03 0.03 0.03 0.03 0.04 0.04 0.05 0.07 0.08 0.08 0.07 0.07 0.08 0.12 0.16 0.23 0.42 0.64 0.68 0.63 0.65 0.68 0.71 0.89 1.06 1.07 1.03 0.94 0.75 0.68 0.73 0.79 0.82 0.89 0.95 0.99 1.06 1.05 0.97 0.84 0.61
0.04 0.04 0.03 0.03 0.04 0.04 0.04 0.05 0.05 0.06 0.08 0.10 0.09 0.08 0.09 0.12 0.19 0.26 0.38 0.51 0.61 0.63 0.65 0.71 0.68 0.67 0.84 0.99 1.03 1.00 0.91 0.76 0.58 0.58 0.68 0.75 0.83 0.89 0.92 0.92 0.93 0.89 0.74 0.50
0.03 0.03 0.03 0.03 0.04 0.05 0.05 0.06 0.06 0.07 0.08 0.10 0.12 0.14 0.17 0.26 0.39 0.53 0.64 0.68 0.65 0.56 0.56 0.61 0.58 0.62 0.77 0.83 0.88 0.94 0.90 0.82 0.66 0.57 0.60 0.65 0.73 0.82 0.82 0.78 0.76 0.73 0.63 0.44
0.04 0.04 0.04 0.03 0.03 0.04 0.05 0.06 0.07 0.07 0.08 0.10 0.15 0.20 0.27 0.38 0.54 0.68 0.77 0.87 0.91 0.79 0.62 0.55 0.52 0.56 0.70 0.72 0.75 0.86 0.87 0.78 0.67 0.60 0.61 0.59 0.63 0.72 0.70 0.65 0.61 0.56 0.49 0.39
0.04 0.04 0.04 0.03 0.03 0.03 0.04 0.05 0.07 0.08 0.10 0.14 0.21 0.27 0.37 0.52 0.69 0.83 0.89 0.93 0.95 0.91 0.73 0.59 0.53 0.54 0.59 0.65 0.72 0.76 0.79 0.75 0.63 0.58 0.60 0.63 0.62 0.63 0.57 0.52 0.47 0.40 0.34 0.31
0.02 0.02 0.02 0.02 0.02 0.02 0.03 0.04 0.08 0.12 0.16 0.21 0.30 0.39 0.50 0.64 0.78 0.93 1.14 1.15 0.93 0.83 0.70 0.60 0.54 0.52 0.54 0.61 0.68 0.73 0.77 0.77 0.66 0.56 0.54 0.56 0.54 0.52 0.48 0.45 0.38 0.30 0.28 0.29
0.01 0.01 0.01 0.01 0.02 0.03 0.04 0.06 0.11 0.19 0.28 0.34 0.37 0.45 0.59 0.71 0.85 0.99 1.08 1.24 1.13 0.98 0.73 0.57 0.50 0.46 0.46 0.53 0.58 0.67 0.70 0.71 0.64 0.54 0.48 0.46 0.43 0.45 0.46 0.39 0.31 0.23 0.22 0.23
0.01 0.01 0.02 0.03 0.04 0.05 0.05 0.08 0.14 0.27 0.40 0.49 0.52 0.59 0.73 0.79 0.92 1.23 1.30 1.16 1.11 0.99 0.70 0.54 0.50 0.43 0.39 0.42 0.51 0.58 0.60 0.60 0.57 0.46 0.38 0.35 0.34 0.37 0.38 0.31 0.26 0.19 0.18 0.16
0.01 0.02 0.03 0.04 0.05 0.08 0.11 0.16 0.22 0.33 0.42 0.46 0.46 0.54 0.70 0.79 0.80 0.88 1.09 1.20 1.15 0.99 0.72 0.58 0.50 0.41 0.36 0.35 0.47 0.56 0.57 0.54 0.51 0.40 0.31 0.26 0.28 0.32 0.29 0.24 0.21 0.18 0.16 0.13
0.02 0.03 0.04 0.05 0.10 0.18 0.27 0.35 0.44 0.49 0.53 0.53 0.46 0.44 0.55 0.70 0.81 0.78 0.81 0.94 1.06 0.95 0.78 0.65 0.54 0.48 0.39 0.35 0.43 0.51 0.52 0.49 0.43 0.36 0.30 0.28 0.29 0.29 0.25 0.19 0.15 0.14 0.13 0.12
0.03 0.04 0.05 0.06 0.12 0.25 0.41 0.57 0.73 0.75 0.76 0.75 0.62 0.49 0.50 0.56 0.61 0.65 0.70 0.76 0.83 0.84 0.75 0.69 0.58 0.50 0.45 0.42 0.44 0.48 0.52 0.53 0.44 0.37 0.35 0.35 0.33 0.30 0.25 0.19 0.14 0.13 0.10 0.09
0.03 0.04 0.05 0.08 0.17 0.30 0.47 0.62 0.79 0.84 0.85 0.88 0.75 0.55 0.48 0.50 0.51 0.56 0.61 0.69 0.71 0.71 0.69 0.63 0.55 0.47 0.42 0.42 0.43 0.45 0.48 0.49 0.45 0.39 0.34 0.32 0.32 0.30 0.24 0.20 0.16 0.12 0.10 0.08